C/2020 B3 ( Rankin )

Japanese version
Home page
Updated on August 15, 2020

---------------------------------------------------------------------

* Profile

Discovery Date January 29, 2020
Magnitude 19.3 mag
Discoverer David Rankin (Mount Lemmon Survey)

* Pictures

* Orbital Elements

Epoch 2019 Oct. 4.0 TT = JDT 2458760.5
T 2019 Oct. 19.89151 TT                                 Rudenko
q   3.3445013            (2000.0)            P               Q
z  +0.0004355      Peri.  325.09088     -0.87016631     -0.49144988
 +/-0.0000082      Node   185.82617     +0.49271021     -0.86878739
e   0.9985436      Incl.   20.70106     -0.00687359     -0.06070818
From 173 observations 2020 Jan. 25-May 25, mean residual 0".5.

* Magnitudes Graph

        m1 = 10.5 + 5 log d + 10.0 log r

---------------------------------------------------------------------

The orbital elements are published on M.P.E.C. 2020-L06.
The magnitudes graphs are made with Comet for Windows.

---------------------------------------------------------------------

Copyright(C) Seiichi Yoshida (comet@aerith.net). All rights reserved.